TimeCDT,TemperatureF,Dew PointF,Humidity,Sea Level PressureIn,VisibilityMPH,Wind Direction,Wind SpeedMPH,Gust SpeedMPH,PrecipitationIn,Events,Conditions,WindDirDegrees,DateUTC
12:15 AM,44.6,35.6,71,29.80,10.0,Calm,Calm,-,N/A,,Clear,0,2013-04-07 05:15:00
12:35 AM,44.6,35.6,71,29.81,10.0,Calm,Calm,-,N/A,,Clear,0,2013-04-07 05:35:00
12:55 AM,42.8,33.8,70,29.82,10.0,Calm,Calm,-,N/A,,Clear,0,2013-04-07 05:55:00
1:15 AM,42.8,35.6,76,29.82,10.0,North,4.6,-,N/A,,Clear,10,2013-04-07 06:15:00
1:35 AM,39.2,33.8,81,29.83,10.0,North,6.9,-,N/A,,Clear,10,2013-04-07 06:35:00
1:55 AM,41.0,33.8,76,29.83,10.0,North,5.8,-,N/A,,Clear,360,2013-04-07 06:55:00
2:15 AM,39.2,33.8,81,29.84,10.0,NNE,5.8,-,N/A,,Clear,30,2013-04-07 07:15:00
2:35 AM,39.2,33.8,81,29.84,10.0,NE,4.6,-,N/A,,Clear,50,2013-04-07 07:35:00
2:55 AM,39.2,35.6,87,29.84,10.0,NE,6.9,-,N/A,,Clear,40,2013-04-07 07:55:00
3:15 AM,39.2,33.8,81,29.83,10.0,NE,8.1,-,N/A,,Scattered Clouds,50,2013-04-07 08:15:00
3:35 AM,37.4,33.8,87,29.83,9.0,ENE,3.5,-,N/A,,Partly Cloudy,60,2013-04-07 08:35:00
3:55 AM,35.6,33.8,93,29.84,8.0,NE,4.6,-,N/A,,Scattered Clouds,40,2013-04-07 08:55:00
4:15 AM,35.6,33.8,93,29.83,7.0,NE,5.8,-,N/A,,Clear,50,2013-04-07 09:15:00
4:35 AM,33.8,32.0,93,29.84,6.0,NE,6.9,-,N/A,,Clear,40,2013-04-07 09:35:00
4:55 AM,35.6,32.0,87,29.83,7.0,NE,9.2,-,N/A,,Clear,50,2013-04-07 09:55:00
5:15 AM,33.8,30.2,87,29.83,6.0,NE,6.9,-,N/A,,Clear,50,2013-04-07 10:15:00
5:35 AM,33.8,30.2,87,29.84,6.0,NE,8.1,-,N/A,,Clear,50,2013-04-07 10:35:00
5:55 AM,32.0,30.2,93,29.84,5.0,NE,6.9,-,N/A,,Clear,50,2013-04-07 10:55:00
6:15 AM,32.0,30.2,93,29.84,5.0,NE,9.2,-,N/A,,Clear,50,2013-04-07 11:15:00
6:35 AM,30.2,28.4,93,29.85,4.0,NNE,9.2,-,N/A,,Clear,30,2013-04-07 11:35:00
6:55 AM,30.2,28.4,93,29.85,1.0,NE,8.1,-,N/A,,Overcast,40,2013-04-07 11:55:00
7:15 AM,28.4,28.4,100,29.86,0.2,ENE,6.9,-,N/A,,Overcast,60,2013-04-07 12:15:00
7:35 AM,30.2,30.2,100,29.86,0.2,ENE,6.9,-,N/A,,Overcast,70,2013-04-07 12:35:00
7:55 AM,30.2,28.4,93,29.86,0.2,ENE,12.7,-,N/A,,Overcast,60,2013-04-07 12:55:00
8:15 AM,30.2,28.4,93,29.87,0.8,ENE,9.2,-,N/A,,Overcast,60,2013-04-07 13:15:00
8:35 AM,30.2,28.4,93,29.86,2.5,ENE,11.5,-,N/A,,Overcast,60,2013-04-07 13:35:00
8:55 AM,30.2,30.2,100,29.86,2.5,East,10.4,-,N/A,,Overcast,80,2013-04-07 13:55:00
9:15 AM,32.0,32.0,100,29.85,3.0,East,9.2,-,N/A,,Overcast,90,2013-04-07 14:15:00
9:35 AM,33.8,33.8,100,29.83,3.0,East,15.0,-,N/A,,Overcast,80,2013-04-07 14:35:00
9:55 AM,35.6,33.8,93,29.82,4.0,East,16.1,20.7,N/A,,Overcast,80,2013-04-07 14:55:00
10:15 AM,37.4,35.6,93,29.81,6.0,ENE,16.1,20.7,N/A,,Overcast,60,2013-04-07 15:15:00
10:35 AM,39.2,33.8,81,29.83,7.0,East,13.8,18.4,N/A,,Overcast,100,2013-04-07 15:35:00
10:55 AM,42.8,33.8,70,29.81,8.0,East,15.0,21.9,N/A,,Scattered Clouds,100,2013-04-07 15:55:00
11:15 AM,44.6,33.8,66,29.80,9.0,East,16.1,20.7,N/A,,Clear,100,2013-04-07 16:15:00
11:35 AM,44.6,33.8,66,29.79,10.0,East,17.3,23.0,N/A,,Clear,80,2013-04-07 16:35:00
11:55 AM,46.4,35.6,66,29.79,10.0,East,12.7,-,N/A,,Clear,100,2013-04-07 16:55:00
12:15 PM,48.2,35.6,62,29.78,10.0,East,15.0,20.7,N/A,,Clear,90,2013-04-07 17:15:00
12:35 PM,51.8,35.6,54,29.77,10.0,ESE,15.0,21.9,N/A,,Clear,110,2013-04-07 17:35:00
12:55 PM,53.6,35.6,51,29.77,10.0,SE,17.3,20.7,N/A,,Clear,140,2013-04-07 17:55:00
1:15 PM,53.6,37.4,54,29.76,10.0,East,11.5,18.4,N/A,,Clear,100,2013-04-07 18:15:00
1:35 PM,55.4,37.4,51,29.74,10.0,East,12.7,18.4,N/A,,Clear,100,2013-04-07 18:35:00
1:55 PM,57.2,37.4,48,29.74,10.0,ESE,10.4,18.4,N/A,,Clear,110,2013-04-07 18:55:00
2:15 PM,57.2,37.4,48,29.73,10.0,East,11.5,17.3,N/A,,Clear,100,2013-04-07 19:15:00
2:35 PM,57.2,37.4,48,29.72,10.0,ESE,10.4,-,N/A,,Clear,110,2013-04-07 19:35:00
2:55 PM,57.2,37.4,48,29.72,10.0,East,10.4,-,N/A,,Clear,90,2013-04-07 19:55:00
3:15 PM,57.2,37.4,48,29.71,10.0,East,8.1,-,N/A,,Clear,90,2013-04-07 20:15:00
3:35 PM,59.0,39.2,48,29.71,10.0,East,6.9,-,N/A,,Clear,100,2013-04-07 20:35:00
3:55 PM,60.8,41.0,48,29.71,10.0,ESE,6.9,-,N/A,,Clear,120,2013-04-07 20:55:00
4:15 PM,59.0,44.6,59,29.71,10.0,Calm,Calm,-,N/A,,Mostly Cloudy,0,2013-04-07 21:15:00
4:35 PM,55.4,46.4,72,29.71,10.0,West,12.7,17.3,N/A,,Mostly Cloudy,260,2013-04-07 21:35:00
4:55 PM,53.6,48.2,82,29.71,10.0,West,13.8,-,N/A,,Overcast,280,2013-04-07 21:55:00
5:15 PM,53.6,48.2,82,29.71,10.0,WNW,8.1,-,0.02,,Overcast,300,2013-04-07 22:15:00
5:35 PM,53.6,48.2,82,29.71,8.0,NNW,4.6,-,0.03,,Overcast,330,2013-04-07 22:35:00
5:55 PM,51.8,50.0,94,29.71,9.0,NNE,3.5,-,0.04,,Scattered Clouds,20,2013-04-07 22:55:00
6:15 PM,51.8,50.0,94,29.70,3.0,ENE,6.9,-,0.02,,Mostly Cloudy,70,2013-04-07 23:15:00
6:35 PM,51.8,48.2,88,29.68,5.0,NE,9.2,-,0.02,,Overcast,50,2013-04-07 23:35:00
6:55 PM,50.0,46.4,87,29.67,5.0,ENE,9.2,-,0.03,,Overcast,60,2013-04-07 23:55:00
7:15 PM,50.0,48.2,94,29.67,4.0,NE,6.9,-,N/A,,Overcast,50,2013-04-08 00:15:00
7:35 PM,50.0,46.4,87,29.66,5.0,ENE,6.9,-,N/A,,Overcast,60,2013-04-08 00:35:00
7:55 PM,50.0,46.4,87,29.67,5.0,NE,5.8,-,N/A,,Overcast,50,2013-04-08 00:55:00
8:15 PM,50.0,46.4,87,29.66,5.0,ENE,5.8,-,N/A,,Mostly Cloudy,60,2013-04-08 01:15:00
8:35 PM,50.0,46.4,87,29.66,5.0,East,6.9,-,N/A,,Mostly Cloudy,80,2013-04-08 01:35:00
8:55 PM,48.2,46.4,93,29.66,5.0,ENE,6.9,-,N/A,,Mostly Cloudy,70,2013-04-08 01:55:00
9:15 PM,48.2,46.4,93,29.67,5.0,ENE,8.1,-,N/A,,Mostly Cloudy,70,2013-04-08 02:15:00
9:35 PM,48.2,46.4,93,29.66,5.0,East,6.9,-,N/A,,Scattered Clouds,80,2013-04-08 02:35:00
9:55 PM,48.2,44.6,87,29.66,5.0,East,5.8,-,N/A,,Clear,80,2013-04-08 02:55:00
10:15 PM,46.4,44.6,93,29.65,4.0,NE,5.8,-,N/A,,Clear,40,2013-04-08 03:15:00
10:35 PM,46.4,44.6,93,29.64,4.0,NE,5.8,-,N/A,,Clear,50,2013-04-08 03:35:00
10:55 PM,46.4,44.6,93,29.64,3.0,NNE,5.8,-,N/A,,Clear,30,2013-04-08 03:55:00
11:15 PM,46.4,44.6,93,29.64,4.0,NNE,4.6,-,N/A,,Clear,30,2013-04-08 04:15:00
11:35 PM,46.4,42.8,87,29.64,4.0,NE,5.8,-,N/A,,Clear,40,2013-04-08 04:35:00
11:55 PM,44.6,42.8,93,29.64,3.0,ENE,4.6,-,N/A,,Clear,60,2013-04-08 04:55:00